weather.gov     
National Weather Service

Terminal Aerodrome Forecast
NWS Homepage
This page is being discontinued on March 12, 2014.
The same data is available at this site. Please update your bookmarks.
Thank you, and we apologize for the inconvenience.
Please send an email to SR-SRH.Webmaster@noaa.gov with any concerns.


Current Version
Previous Version:    01  02  03  04  05  06  07  08  09  10  11  12  13  14  15  16  17  18  19  20  21  22  23  24  25  26  27  28  29  30  
   31  32  33  34  35  36  37  38  39  40  41  42  43  44  45  46  47  48  49  
[Printable]
356
FTUS42 KMFL 200234 AAB
TAFFLL
TAF AMD
KFLL 200234Z 2003/2024 14011KT P6SM SKC
     FM200700 00000KT P6SM SKC
     FM201300 10003KT P6SM SKC
     FM201500 12008KT P6SM SCT040=


356
FTUS42 KMFL 200234 AAB
TAFFLL
TAF AMD
KFLL 200234Z 2003/2024 14011KT P6SM SKC
     FM200700 00000KT P6SM SKC
     FM201300 10003KT P6SM SKC
     FM201500 12008KT P6SM SCT040=




U.S. Dept. of Commerce
NOAA National Weather Service
1325 East West Highway
Silver Spring, MD 20910
E-mail: w-nws.webmaster@noaa.gov
Page last modified: May 16, 2007
NATIONAL WEATHER SERVICE: for Safety, for Work, for Fun - FOR LIFE